Location: Kawakawa
(35.3830°S, 174.0670°E)
Time: 02:28:01
(UTC+13:00)

Explorer 7 - Pass Details

Date: 16 December 2019
Orbit: 485 x 679 km, 50.3° (Epoch: 23 January)

Event Time Altitude Azimuth Distance (km) Brightness Sun altitude
Rises 05:02:31 0° 253° (WSW) 2,624 - -11.0°
Exits shadow 05:02:38 - 252° (WSW) 2,583 9.9 -11.0°
Reaches altitude 10° 05:06:00 10° 220° (SW) 1,714 9.3 -10.4°
Maximum altitude 05:07:33 12° 196° (SSW) 1,583 9.5 -10.2°
Drops below altitude 10° 05:09:05 10° 172° (S) 1,701 10.0 -10.0°
Sets 05:12:32 0° 140° (SE) 2,580 12.2 -9.4°
